1484661600.4,51407,5.75,73332.3,-12.43,-47.57,-48.07,0,*69
1484661601.64,51408,5.75,73332.0,-12.41,-48.07,-48.63,0,*6C
1484661602.86,51409,5.75,73332.8,-12.43,-47.57,-48.07,0,*67
1484661604.08,51410,5.75,73334.5,-12.43,-47.57,-48.07,0,*6F
1484661605.34,51411,5.75,73334.0,-12.45,-47.71,-48.41,0,*6E
1484661606.61,51412,5.75,73328.8,-12.45,-47.45,-47.85,0,*6D
1484661607.88,51413,5.75,73334.8,-12.45,-47.23,-47.57,0,*63
1484661609.15,51414,5.75,73332.0,-12.45,-46.97,-47.37,0,*6C
1484661610.39,51415,5.75,73332.3,-12.45,-47.57,-47.85,0,*69
1484661611.66,51416,5.75,73334.3,-12.51,-47.23,-47.45,0,*60
1484661612.96,51417,5.75,73330.8,-12.49,-47.45,-47.71,0,*6F
1484661614.22,51418,5.75,73332.3,-12.51,-47.45,-47.93,0,*65
1484661615.44,51419,5.75,73334.3,-12.51,-47.65,-47.85,0,*61
1484661616.68,51420,5.75,73330.0,-12.51,-47.51,-47.71,0,*67
1484661617.93,51421,5.75,73332.0,-12.53,-47.31,-47.57,0,*66
1484661619.17,51422,5.75,73334.5,-12.53,-46.75,-47.31,0,*64
1484661620.42,51423,5.75,73328.5,-12.53,-47.09,-47.51,0,*69
1484661621.65,51424,5.75,73324.0,-12.53,-46.75,-47.17,0,*66
1484661622.87,51425,5.75,73330.5,-12.55,-46.75,-47.17,0,*61
1484661624.1,51426,5.75,73330.5,-12.55,-47.71,-47.99,0,*61
1484661625.35,51427,5.75,73328.0,-12.55,-47.79,-48.41,0,*62
1484661626.59,51428,5.75,73330.8,-12.57,-47.51,-47.99,0,*6F
1484661627.84,51429,5.75,73330.8,-12.59,-47.85,-48.35,0,*60
1484661629.08,51430,5.75,73330.3,-12.59,-47.37,-47.57,0,*6A
1484661630.36,51431,5.75,73332.0,-12.59,-47.37,-47.79,0,*67
1484661631.63,51432,5.75,73330.5,-12.59,-47.03,-47.37,0,*69
1484661632.85,51433,5.75,73334.8,-12.63,-47.17,-47.57,0,*62
1484661634.09,51434,5.75,73334.0,-12.59,-46.69,-46.97,0,*69
1484661635.34,51435,5.75,73328.5,-12.63,-46.49,-46.75,0,*6F
1484661636.58,51436,5.75,73326.8,-12.65,-47.09,-47.51,0,*68
1484661637.85,51437,5.75,73330.8,-12.65,-47.03,-47.31,0,*65
1484661639.12,51438,5.75,73328.5,-12.65,-47.03,-47.51,0,*6C
1484661640.36,51439,5.75,73330.0,-12.65,-47.09,-47.51,0,*67
1484661641.59,51440,5.75,73328.8,-12.65,-46.75,-47.09,0,*6E
1484661642.87,51441,5.75,73328.5,-12.65,-46.83,-47.23,0,*6E
1484661644.17,51442,5.75,73330.5,-12.65,-46.89,-47.45,0,*67
1484661645.44,51443,5.75,73328.0,-12.65,-48.07,-48.27,0,*65
1484661646.66,51444,5.75,73330.3,-12.67,-47.31,-47.65,0,*63
1484661647.91,51445,5.75,73334.3,-12.67,-47.93,-48.21,0,*65
1484661649.15,51446,5.75,73330.5,-12.67,-47.79,-47.99,0,*6E
1484661650.39,51447,5.75,73332.0,-12.67,-47.51,-47.71,0,*63
1484661651.63,51448,5.75,73328.8,-12.67,-47.51,-47.79,0,*64
1484661652.87,51449,5.75,73328.5,-12.73,-47.79,-47.99,0,*64
1484661654.14,51450,5.75,73332.0,-12.69,-47.37,-47.71,0,*6B
1484661655.4,51451,5.75,73332.5,-12.73,-47.03,-47.23,0,*61
1484661656.64,51452,5.75,73332.0,-12.73,-46.97,-47.45,0,*6E
1484661657.91,51453,5.75,73324.8,-12.75,-46.89,-47.17,0,*61
1484661659.18,51454,5.75,73332.5,-12.75,-46.27,-46.55,0,*65
1484661660.44,51455,5.75,73332.5,-12.73,-46.49,-46.89,0,*6B
1484661661.68,51456,5.75,73332.0,-12.75,-46.55,-46.97,0,*6C
1484661662.92,51457,5.75,73332.5,-12.75,-45.95,-46.35,0,*6A
1484661664.18,51458,5.75,73330.3,-12.75,-45.95,-46.27,0,*66
1484661665.45,51459,5.75,73328.3,-12.75,-45.95,-46.27,0,*67
1484661666.67,51460,5.75,73328.3,-12.69,-45.61,-45.87,0,*62
1484661667.91,51461,5.75,73328.3,-12.69,-45.53,-45.81,0,*64
1484661669.14,51462,5.75,73328.0,-12.69,-45.53,-46.01,0,*6C
1484661670.38,51463,5.75,73330.5,-12.69,-45.53,-45.81,0,*66
1484661671.59,51464,5.75,73328.3,-12.69,-45.33,-45.61,0,*69
1484661672.81,51465,5.75,73332.0,-12.69,-45.53,-45.67,0,*68
1484661674.03,51466,5.75,73330.0,-12.67,-45.61,-45.87,0,*6A
1484661675.25,51467,5.75,73330.5,-12.67,-45.61,-45.87,0,*6B
1484661676.47,51468,5.75,73334.0,-12.67,-45.67,-46.01,0,*6F
1484661677.69,51469,5.75,73332.5,-12.67,-45.87,-46.21,0,*62
1484661678.93,51470,5.75,73334.3,-12.67,-45.67,-46.07,0,*60
1484661680.15,51471,5.75,73334.5,-12.67,-45.61,-45.87,0,*6C
1484661681.38,51472,5.75,73332.8,-12.67,-45.13,-45.53,0,*63
1484661682.61,51473,5.75,73334.3,-12.67,-44.79,-45.21,0,*6A
1484661683.83,51474,5.75,73328.8,-12.67,-44.99,-45.13,0,*62
1484661685.1,51475,5.75,73334.8,-12.67,-44.73,-45.07,0,*62
1484661686.31,51476,5.75,73330.0,-12.67,-45.13,-45.33,0,*61
1484661687.54,51477,5.75,73334.0,-12.67,-45.13,-45.53,0,*66
1484661688.76,51478,5.75,73332.8,-12.63,-44.99,-45.21,0,*6B
1484661690.04,51479,5.75,73336.5,-12.65,-44.87,-45.07,0,*67
1484661691.31,51480,5.75,73338.8,-12.65,-45.07,-45.33,0,*6F
1484661692.59,51481,5.75,73334.0,-12.65,-45.27,-45.61,0,*6B
1484661693.87,51482,5.75,73334.8,-12.63,-45.27,-45.47,0,*6A
1484661695.11,51483,5.75,73338.3,-12.63,-45.07,-45.41,0,*6F
1484661696.34,51484,5.75,73332.8,-12.63,-44.99,-45.21,0,*68
1484661697.57,51485,5.75,73338.3,-12.63,-44.99,-45.21,0,*69
1484661698.82,51486,5.75,73338.8,-12.59,-44.79,-45.07,0,*69
1484661700.07,51487,5.75,73332.8,-12.59,-44.79,-45.07,0,*68
1484661701.3,51488,5.75,73332.0,-12.59,-44.79,-44.99,0,*61
1484661702.57,51489,5.75,73332.5,-12.57,-44.73,-44.99,0,*64
1484661703.84,51490,5.75,73334.0,-12.57,-44.93,-45.21,0,*60
1484661705.06,51491,5.75,73330.8,-12.59,-45.13,-45.41,0,*60
1484661706.31,51492,5.75,73332.0,-12.57,-45.61,-46.01,0,*6F
1484661707.58,51493,5.75,73334.3,-12.55,-45.81,-46.07,0,*64
1484661708.85,51494,5.75,73332.3,-12.59,-45.73,-46.15,0,*61
1484661710.07,51495,5.75,73334.0,-12.59,-45.33,-45.67,0,*62
1484661711.33,51496,5.75,73336.8,-12.59,-45.47,-45.73,0,*67
1484661712.59,51497,5.75,73336.8,-12.59,-45.53,-46.07,0,*63
1484661713.86,51498,5.75,73334.0,-12.59,-46.07,-46.27,0,*6C
1484661715.14,51499,5.75,73332.8,-12.59,-46.15,-46.49,0,*66
1484661716.39,51500,5.75,73334.3,-12.63,-45.47,-45.67,0,*65
1484661717.64,51501,5.75,73332.0,-12.63,-45.67,-46.07,0,*63
1484661718.85,51502,5.75,73334.8,-12.59,-45.41,-45.67,0,*68
1484661720.11,51503,5.75,73334.8,-12.59,-45.27,-45.67,0,*69
1484661721.35,51504,5.75,73336.5,-12.59,-45.21,-45.47,0,*6A
1484661722.59,51505,5.75,73334.8,-12.57,-45.33,-45.61,0,*62
1484661723.87,51506,5.75,73332.5,-12.59,-45.27,-45.47,0,*6E
1484661725.13,51507,5.75,73334.8,-12.59,-45.27,-45.53,0,*6A
1484661726.35,51508,5.75,73336.0,-12.59,-45.13,-45.33,0,*64
1484661727.59,51509,5.75,73334.5,-12.57,-45.33,-45.53,0,*6F
1484661728.84,51510,5.75,73332.3,-12.59,-45.53,-45.73,0,*6D
1484661730.11,51511,5.75,73334.8,-12.57,-45.21,-45.47,0,*60
1484661731.35,51512,5.75,73330.8,-12.57,-44.99,-45.41,0,*67
1484661732.59,51513,5.75,73332.8,-12.57,-44.99,-45.33,0,*63
1484661733.81,51514,5.75,73334.5,-12.59,-45.41,-45.67,0,*6F
1484661735.05,51515,5.81,73338.3,-12.57,-44.99,-45.33,0,*65
1484661736.3,51516,5.75,73334.5,-12.57,-44.99,-45.21,0,*65
1484661737.52,51517,5.75,73334.5,-12.55,-45.21,-45.41,0,*62
1484661738.76,51518,5.75,73334.5,-12.57,-45.41,-45.67,0,*6D
1484661740.03,51519,5.75,73330.0,-12.57,-46.01,-46.27,0,*6C
1484661741.32,51520,5.75,73332.3,-12.57,-45.81,-46.07,0,*6F
1484661742.62,51521,5.75,73334.5,-12.57,-46.07,-46.27,0,*61
1484661743.89,51522,5.75,73334.3,-12.57,-46.21,-46.49,0,*6E
1484661745.18,51523,5.75,73332.0,-12.57,-45.47,-45.81,0,*6B
1484661746.41,51524,5.75,73330.5,-12.59,-45.53,-45.87,0,*61
1484661747.65,51525,5.75,73334.5,-12.57,-45.67,-46.01,0,*64
1484661748.87,51526,5.75,73328.3,-12.59,-45.67,-45.95,0,*67
1484661750.13,51527,5.75,73332.0,-12.59,-46.49,-46.83,0,*6D
1484661751.38,51528,5.75,73332.0,-12.59,-46.35,-46.69,0,*6D
1484661752.65,51529,5.75,73334.5,-12.65,-47.45,-47.85,0,*66
1484661753.93,51530,5.75,73334.3,-12.63,-47.45,-47.79,0,*6B
1484661755.2,51531,5.75,73332.0,-12.65,-46.89,-47.31,0,*61
1484661756.42,51532,5.75,73334.8,-12.67,-47.09,-47.65,0,*68
1484661757.69,51533,5.75,73334.0,-12.67,-46.61,-46.61,0,*63
1484661758.93,51534,5.75,73338.0,-12.67,-45.87,-46.27,0,*6D
1484661760.17,51535,5.75,73334.3,-12.67,-45.81,-46.01,0,*6E
1484661761.39,51536,5.75,73336.8,-12.67,-45.61,-45.87,0,*6E
1484661762.61,51537,5.75,73336.3,-12.67,-45.33,-45.61,0,*60
1484661763.84,51538,5.75,73334.3,-12.67,-45.33,-45.47,0,*6B
1484661765.09,51539,5.75,73334.3,-12.67,-45.47,-45.61,0,*6D
1484661766.36,51540,5.75,73334.3,-12.67,-45.47,-45.81,0,*6D
1484661767.58,51541,5.75,73332.3,-12.67,-45.53,-45.95,0,*6C
1484661768.83,51542,5.75,73332.8,-12.67,-45.53,-45.81,0,*6A
1484661770.05,51543,5.75,73336.0,-12.67,-45.33,-45.53,0,*62
1484661771.29,51544,5.75,73334.0,-12.67,-45.47,-45.61,0,*67
1484661772.54,51545,5.75,73332.3,-12.67,-45.53,-45.81,0,*6D
1484661773.77,51546,5.75,73332.5,-12.67,-45.53,-46.01,0,*65
1484661774.99,51547,5.75,73334.0,-12.67,-45.53,-45.95,0,*6A
1484661776.21,51548,5.75,73334.8,-12.67,-45.61,-45.95,0,*64
1484661777.45,51549,5.75,73330.3,-12.67,-45.73,-46.21,0,*6A
1484661778.7,51550,5.75,73330.0,-12.67,-46.01,-46.27,0,*62
1484661779.92,51551,5.75,73328.3,-12.67,-45.41,-45.61,0,*65
1484661781.19,51552,5.75,73330.3,-12.67,-45.27,-45.47,0,*62
1484661782.46,51553,5.75,73324.8,-12.67,-45.47,-45.73,0,*62
1484661783.71,51554,5.75,73326.3,-12.67,-45.53,-45.81,0,*6D
1484661784.96,51555,5.75,73324.8,-12.67,-45.53,-45.81,0,*6C
1484661786.22,51556,5.75,73332.5,-12.65,-46.41,-46.55,0,*67
1484661787.44,51557,5.75,73330.8,-12.67,-46.21,-46.55,0,*62
1484661788.69,51558,5.75,73328.5,-12.67,-46.21,-46.49,0,*60
1484661789.94,51559,5.75,73334.8,-12.67,-45.53,-45.73,0,*6D
1484661791.2,51560,5.75,73332.8,-12.67,-45.47,-45.81,0,*6F
1484661792.48,51561,5.75,73334.8,-12.67,-45.27,-45.47,0,*62
1484661793.7,51562,5.75,73326.0,-12.67,-45.33,-45.53,0,*61
1484661794.94,51563,5.75,73332.0,-12.67,-44.93,-45.33,0,*6D
1484661796.17,51564,5.75,73334.3,-12.67,-45.53,-45.95,0,*6B
1484661797.43,51565,5.75,73332.0,-12.67,-46.41,-46.69,0,*6A
1484661798.65,51566,5.75,73332.3,-12.67,-45.61,-45.87,0,*6B
1484661799.93,51567,5.75,73332.0,-12.67,-46.07,-46.49,0,*68
1484661801.15,51568,5.75,73330.5,-12.67,-46.01,-46.21,0,*6F
1484661802.42,51569,5.75,73332.8,-12.67,-46.61,-46.89,0,*6A
1484661803.69,51570,5.75,73334.8,-12.67,-46.49,-46.49,0,*64
1484661804.96,51571,5.75,73334.0,-12.69,-46.07,-46.49,0,*61
1484661806.23,51572,5.75,73332.0,-12.69,-46.61,-46.89,0,*6E
1484661807.47,51573,5.75,73328.5,-12.73,-46.69,-46.75,0,*6F
1484661808.71,51574,5.75,73332.8,-12.73,-45.95,-46.15,0,*6E
1484661809.94,51575,5.75,73334.0,-12.73,-46.89,-47.17,0,*62
1484661811.18,51576,5.75,73334.3,-12.73,-46.55,-46.89,0,*66
1484661812.47,51577,5.75,73336.0,-12.75,-45.73,-46.07,0,*60
1484661813.71,51578,5.75,73332.3,-12.73,-45.87,-46.15,0,*61
1484661814.97,51579,5.75,73334.0,-12.73,-45.73,-46.07,0,*68
1484661816.26,51580,5.75,73332.8,-12.75,-45.27,-45.47,0,*6E
1484661817.55,51581,5.75,73332.8,-12.75,-45.07,-45.27,0,*6B
1484661818.85,51582,5.75,73336.0,-12.75,-45.07,-45.27,0,*68
1484661820.09,51583,5.75,73332.3,-12.75,-44.99,-45.21,0,*69
1484661821.35,51584,5.75,73334.8,-12.75,-45.61,-45.73,0,*6F
1484661822.56,51585,5.75,73334.3,-12.73,-45.61,-45.87,0,*63
1484661823.78,51586,5.75,73334.3,-12.69,-45.67,-46.01,0,*60
1484661825.04,51587,5.75,73334.0,-12.73,-45.47,-45.73,0,*6E
1484661826.28,51588,5.75,73332.8,-12.73,-45.21,-45.27,0,*60
1484661827.5,51589,5.75,73332.5,-12.69,-45.61,-45.87,0,*64
1484661828.71,51590,5.75,73332.5,-12.69,-45.67,-45.87,0,*6A
1484661829.93,51591,5.75,73334.0,-12.69,-45.61,-45.87,0,*6D
1484661831.15,51592,5.75,73332.3,-12.69,-45.21,-45.33,0,*65
1484661832.39,51593,5.75,73334.0,-12.73,-44.99,-45.27,0,*68
1484661833.6,51594,5.75,73336.0,-12.73,-44.99,-45.21,0,*69
1484661834.82,51595,5.75,73336.0,-12.69,-45.53,-45.61,0,*60
1484661836.03,51596,5.75,73334.0,-12.73,-45.41,-45.67,0,*6D
1484661837.26,51597,5.75,73338.0,-12.73,-45.41,-45.47,0,*6E
1484661838.47,51598,5.75,73338.8,-12.73,-44.99,-45.13,0,*64
1484661839.69,51599,5.75,73336.0,-12.69,-44.79,-45.13,0,*60
1484661840.93,51600,5.75,73334.3,-12.69,-44.73,-44.99,0,*6A
1484661842.14,51601,5.75,73338.3,-12.69,-45.13,-45.41,0,*68
1484661843.37,51602,5.75,73332.5,-12.69,-45.21,-45.53,0,*69
1484661844.6,51603,5.75,73334.3,-12.69,-45.13,-45.47,0,*6C
1484661845.82,51604,5.75,73336.3,-12.67,-45.13,-45.41,0,*63
1484661847.07,51605,5.75,73336.5,-12.67,-44.93,-45.21,0,*6D
1484661848.32,51606,5.75,73338.8,-12.67,-44.73,-45.13,0,*61
1484661849.57,51607,5.75,73336.5,-12.67,-44.87,-45.07,0,*6E
1484661850.81,51608,5.75,73342.0,-12.67,-44.93,-45.13,0,*61
1484661852.03,51609,5.75,73336.5,-12.67,-45.13,-45.21,0,*68
1484661853.29,51610,5.75,73336.5,-12.67,-44.93,-45.21,0,*69
1484661854.54,51611,5.75,73336.5,-12.67,-44.87,-45.07,0,*69
1484661855.75,51612,5.75,73334.8,-12.67,-44.99,-45.13,0,*60
1484661856.97,51613,5.75,73334.5,-12.67,-45.13,-45.33,0,*60
1484661858.25,51614,5.75,73338.3,-12.67,-45.27,-45.47,0,*63
1484661859.48,51615,5.75,73336.3,-12.67,-45.33,-45.73,0,*60
1484661860.69,51616,5.81,73340.5,-12.67,-45.41,-45.67,0,*63
1484661861.97,51617,5.75,73338.0,-12.67,-44.93,-45.07,0,*6A
1484661863.24,51618,5.75,73340.3,-12.67,-45.27,-45.47,0,*6F
1484661864.49,51619,5.75,73336.0,-12.67,-45.47,-45.53,0,*6D
1484661865.74,51620,5.75,73338.0,-12.67,-45.27,-45.53,0,*61
1484661867.01,51621,5.75,73334.3,-12.67,-45.47,-45.73,0,*64
1484661868.26,51622,5.75,73334.3,-12.67,-45.53,-45.73,0,*62
1484661869.48,51623,5.75,73334.8,-12.67,-46.35,-46.75,0,*65
1484661870.73,51624,5.75,73334.5,-12.67,-46.83,-46.89,0,*6C
1484661871.98,51625,5.75,73332.0,-12.67,-46.61,-46.83,0,*6B
1484661873.25,51626,5.75,73330.8,-12.67,-46.49,-46.61,0,*6E
1484661874.46,51627,5.81,73334.8,-12.67,-45.87,-46.21,0,*6A
1484661875.72,51628,5.75,73336.0,-12.73,-46.69,-46.89,0,*61
1484661876.96,51629,5.81,73338.0,-12.73,-46.69,-46.75,0,*63
1484661878.2,51630,5.75,73334.0,-12.73,-46.49,-46.75,0,*69
1484661879.44,51631,5.75,73334.0,-12.73,-46.27,-46.75,0,*60
1484661880.71,51632,5.75,73334.5,-12.73,-47.03,-47.45,0,*66
1484661881.94,51633,5.75,73332.8,-12.77,-47.23,-47.65,0,*63
1484661883.15,51634,5.75,73334.5,-12.77,-47.09,-47.51,0,*6B
1484661884.37,51635,5.75,73334.3,-12.77,-46.35,-46.75,0,*63
1484661885.59,51636,5.81,73338.8,-12.77,-46.35,-46.55,0,*62
1484661886.86,51637,5.75,73338.0,-12.79,-46.61,-46.83,0,*67
1484661888.08,51638,5.75,73332.0,-12.81,-47.31,-47.51,0,*65
1484661889.33,51639,5.81,73338.5,-12.79,-46.55,-46.83,0,*6E
1484661890.59,51640,5.75,73334.5,-12.79,-46.61,-46.97,0,*62
1484661891.83,51641,5.81,73338.8,-12.81,-47.03,-47.51,0,*6A
1484661893.07,51642,5.75,73336.3,-12.85,-46.83,-47.03,0,*63
1484661894.31,51643,5.75,73338.3,-12.81,-46.97,-47.03,0,*63
1484661895.55,51644,5.75,73338.5,-12.85,-46.21,-46.49,0,*62
1484661896.82,51645,5.81,73342.0,-12.85,-45.81,-46.07,0,*60
1484661898.08,51646,5.75,73338.5,-12.81,-45.73,-46.15,0,*69
1484661899.34,51647,5.75,73336.8,-12.85,-45.81,-46.07,0,*62
1484661900.58,51648,5.75,73338.8,-12.81,-45.67,-45.81,0,*6C
1484661901.8,51649,5.75,73336.8,-12.85,-45.41,-45.53,0,*62
1484661903.04,51650,5.75,73336.3,-12.85,-45.53,-45.73,0,*6B
1484661904.27,51651,5.75,73336.3,-12.81,-45.33,-45.47,0,*6F
1484661905.57,51652,5.75,73336.0,-12.79,-45.27,-45.47,0,*6E
1484661906.79,51653,5.75,73336.8,-12.81,-45.13,-45.53,0,*6A
1484661908.06,51654,5.75,73338.5,-12.81,-45.27,-45.47,0,*6F
1484661909.31,51655,5.75,73338.5,-12.81,-45.27,-45.33,0,*6D
1484661910.59,51656,5.75,73336.5,-12.79,-45.27,-45.53,0,*6F
1484661911.89,51657,5.75,73338.0,-12.79,-45.27,-45.27,0,*6D
1484661913.1,51658,5.75,73332.5,-12.81,-45.13,-45.33,0,*67
1484661914.32,51659,5.75,73334.5,-12.81,-45.95,-46.35,0,*6D
1484661915.58,51660,5.75,73332.0,-12.79,-46.21,-46.41,0,*6F
1484661916.8,51661,5.75,73338.3,-12.81,-46.21,-46.55,0,*6C
1484661918.04,51662,5.75,73334.5,-12.81,-47.03,-47.31,0,*6D
1484661919.25,51663,5.81,73336.8,-12.81,-47.09,-47.51,0,*60
1484661920.5,51664,5.75,73334.0,-12.87,-48.07,-48.49,0,*66
1484661921.72,51665,5.75,73334.3,-12.85,-48.55,-49.05,0,*6B
1484661922.94,51666,5.81,73342.8,-12.89,-47.85,-48.07,0,*65
1484661924.21,51667,5.81,73340.8,-12.91,-47.71,-48.07,0,*66
1484661925.45,51668,5.75,73336.0,-12.91,-47.65,-47.85,0,*69
1484661926.69,51669,5.75,73336.3,-12.91,-46.55,-46.75,0,*64
1484661927.96,51670,5.75,73336.8,-12.91,-46.15,-46.35,0,*6C
1484661929.21,51671,5.75,73338.5,-12.91,-46.21,-46.55,0,*6C
1484661930.45,51672,5.75,73338.0,-12.91,-45.95,-46.21,0,*60
1484661931.69,51673,5.81,73340.8,-12.91,-45.87,-46.01,0,*60
1484661932.94,51674,5.81,73338.0,-12.91,-46.83,-46.97,0,*6F
1484661934.23,51675,5.81,73336.3,-12.91,-47.23,-47.71,0,*6C
1484661935.51,51676,5.81,73338.3,-12.91,-47.71,-47.93,0,*64
1484661936.76,51677,5.75,73334.8,-12.91,-47.65,-48.07,0,*62
1484661938.02,51678,5.75,73332.0,-12.95,-47.51,-47.93,0,*6C
1484661939.29,51679,5.81,73334.5,-12.97,-47.03,-47.37,0,*66
1484661940.54,51680,5.75,73334.3,-12.97,-46.83,-46.89,0,*6D
1484661941.81,51681,5.75,73330.5,-12.99,-47.37,-47.65,0,*6F
1484661943.04,51682,5.75,73328.0,-12.99,-47.17,-47.51,0,*69
1484661944.31,51683,5.75,73328.3,-12.99,-46.69,-46.97,0,*6B
1484661945.56,51684,5.75,73332.0,-12.99,-47.09,-47.31,0,*66
1484661946.83,51685,5.81,73334.0,-13.01,-46.49,-46.75,0,*63
1484661948.07,51686,5.75,73334.0,-12.99,-47.31,-47.65,0,*6E
1484661949.29,51687,5.75,73332.5,-13.03,-47.65,-48.07,0,*67
1484661950.53,51688,5.75,73332.0,-13.01,-47.31,-47.57,0,*61
1484661951.77,51689,5.75,73332.0,-13.03,-46.55,-46.89,0,*63
1484661953.04,51690,5.75,73332.8,-13.03,-46.49,-46.89,0,*66
1484661954.28,51691,5.75,73328.8,-13.03,-47.37,-47.65,0,*6C
1484661955.53,51692,5.75,73332.0,-13.11,-47.71,-48.07,0,*65
1484661956.77,51693,5.81,73338.0,-13.11,-47.99,-48.35,0,*63
1484661958.02,51694,5.81,73338.5,-13.11,-47.23,-47.31,0,*6E
1484661959.26,51695,5.81,73336.3,-13.07,-47.23,-47.65,0,*69
1484661960.48,51696,5.81,73338.8,-13.11,-47.99,-48.21,0,*63
1484661961.72,51697,5.75,73334.0,-13.13,-47.51,-47.85,0,*65
1484661962.94,51698,5.81,73336.3,-13.15,-47.31,-47.57,0,*65
1484661964.16,51699,5.75,73334.3,-13.15,-46.75,-46.97,0,*68
1484661965.43,51700,5.81,73330.3,-13.15,-46.27,-46.49,0,*6D
1484661966.73,51701,5.75,73328.8,-13.13,-46.07,-46.27,0,*60
1484661967.98,51702,5.75,73330.3,-13.13,-46.01,-46.35,0,*66
1484661969.25,51703,5.81,73328.5,-13.13,-46.35,-46.69,0,*69
1484661970.5,51704,5.75,73328.0,-13.13,-46.35,-46.55,0,*61
1484661971.75,51705,5.81,73332.5,-13.13,-45.87,-46.01,0,*6B
1484661973.04,51706,5.75,73334.5,-13.13,-45.81,-46.07,0,*68
1484661974.28,51707,5.81,73332.8,-13.13,-45.87,-45.87,0,*64
1484661975.52,51708,5.81,73336.0,-13.11,-45.41,-45.73,0,*68
1484661976.79,51709,5.81,73334.8,-13.13,-45.61,-45.81,0,*64
1484661977.99,51710,5.81,73334.5,-13.07,-45.33,-45.67,0,*66
1484661979.23,51711,5.81,73336.8,-13.07,-45.13,-45.47,0,*67
1484661980.48,51712,5.75,73332.5,-13.11,-45.53,-45.73,0,*60
1484661981.72,51713,5.75,73340.5,-13.07,-45.61,-45.81,0,*6A
1484661982.97,51714,5.81,73340.8,-13.11,-45.61,-45.81,0,*6A
1484661984.18,51715,5.81,73340.3,-13.07,-45.53,-45.87,0,*6B
1484661985.45,51716,5.81,73340.5,-13.07,-45.73,-46.07,0,*61
1484661986.66,51717,5.75,73342.0,-13.07,-45.53,-45.67,0,*67
1484661987.87,51718,5.81,73346.5,-13.07,-45.67,-45.95,0,*62
1484661989.12,51719,5.81,73346.5,-13.03,-45.27,-45.67,0,*6E
1484661990.33,51720,5.81,73342.5,-13.03,-45.41,-45.67,0,*64
1484661991.55,51721,5.75,73336.5,-13.03,-45.41,-45.61,0,*63
1484661992.79,51722,5.81,73340.3,-13.03,-45.87,-46.07,0,*69
1484661994.04,51723,5.75,73336.8,-13.03,-46.01,-46.27,0,*67
1484661995.28,51724,5.75,73338.0,-13.03,-45.87,-46.07,0,*6F
1484661996.5,51725,5.81,73340.8,-13.03,-45.61,-45.87,0,*6D
1484661997.72,51726,5.81,73336.5,-13.07,-46.55,-46.83,0,*69
1484661998.96,51727,5.75,73334.5,-13.07,-46.15,-46.35,0,*61
1484662000.23,51728,5.81,73336.3,-13.07,-46.07,-46.41,0,*6E
1484662001.47,51729,5.75,73334.5,-13.07,-46.97,-47.37,0,*66
1484662002.74,51730,5.81,73338.3,-13.11,-47.45,-47.71,0,*65
1484662004.02,51731,5.75,73334.0,-13.11,-46.89,-47.23,0,*62
1484662005.29,51732,5.81,73336.0,-13.11,-46.27,-46.61,0,*62
1484662006.54,51733,5.75,73330.8,-13.13,-45.87,-46.01,0,*6E
1484662007.79,51734,5.75,73332.0,-13.13,-46.01,-46.21,0,*66
1484662009.03,51735,5.81,73336.0,-13.13,-45.67,-45.87,0,*6B
1484662010.3,51736,5.81,73336.5,-13.13,-45.61,-45.81,0,*68
1484662011.54,51737,5.81,73330.5,-13.07,-46.15,-46.35,0,*60
1484662012.81,51738,5.81,73330.5,-13.11,-46.41,-46.69,0,*60
1484662014.08,51739,5.75,73328.3,-13.11,-46.61,-47.03,0,*6E
1484662015.35,51740,5.75,73330.3,-13.11,-46.27,-46.61,0,*67
1484662016.6,51741,5.81,73328.3,-13.13,-46.35,-46.75,0,*62
1484662017.87,51742,5.81,73328.5,-13.13,-47.09,-47.37,0,*68
1484662019.08,51743,5.81,73330.5,-13.15,-47.17,-47.65,0,*67
1484662020.3,51744,5.81,73332.5,-13.15,-47.57,-47.85,0,*6A
1484662021.51,51745,5.75,73328.3,-13.15,-48.21,-48.49,0,*6A
1484662022.78,51746,5.81,73334.8,-13.19,-47.93,-48.27,0,*6B
1484662024.0,51747,5.81,73332.3,-13.15,-47.31,-47.65,0,*67
1484662025.24,51748,5.81,73338.0,-13.19,-47.03,-47.17,0,*60
1484662026.51,51749,5.81,73334.0,-13.21,-46.89,-47.31,0,*6D
1484662027.78,51750,5.75,73334.5,-13.21,-46.83,-47.23,0,*6C
1484662029.07,51751,5.81,73332.3,-13.21,-47.45,-47.71,0,*61
1484662030.34,51752,5.81,73338.3,-13.23,-47.71,-48.13,0,*6C
1484662031.61,51753,5.81,73340.8,-13.25,-47.57,-47.79,0,*6C
1484662032.88,51754,5.81,73336.0,-13.25,-47.79,-48.21,0,*65
1484662034.14,51755,5.81,73336.5,-13.25,-46.69,-46.97,0,*67
1484662035.41,51756,5.81,73332.8,-13.25,-46.41,-46.55,0,*60
1484662036.68,51757,5.81,73338.0,-13.25,-46.21,-46.49,0,*6A
1484662037.94,51758,5.81,73332.5,-13.25,-46.69,-46.97,0,*6A
1484662039.19,51759,5.81,73338.5,-13.27,-46.49,-46.75,0,*67
1484662040.43,51760,5.81,73332.8,-13.25,-47.17,-47.51,0,*62
1484662041.65,51761,5.81,73336.8,-13.27,-46.55,-46.97,0,*6D
1484662042.91,51762,5.81,73338.8,-13.25,-46.41,-46.75,0,*65
1484662044.18,51763,5.81,73338.0,-13.25,-46.49,-46.75,0,*6C
1484662045.4,51764,5.81,73332.8,-13.27,-46.75,-47.17,0,*63
1484662046.62,51765,5.81,73332.0,-13.27,-47.09,-47.51,0,*6A
1484662047.89,51766,5.81,73336.3,-13.29,-47.79,-48.07,0,*6C
1484662049.11,51767,5.81,73334.3,-13.27,-48.07,-48.49,0,*6F
1484662050.39,51768,5.81,73334.5,-13.29,-47.79,-48.07,0,*62
1484662051.66,51769,5.81,73338.8,-13.33,-46.83,-47.23,0,*65
1484662052.91,51770,5.81,73336.3,-13.33,-46.35,-46.75,0,*62
1484662054.16,51771,5.81,73334.8,-13.33,-46.55,-46.83,0,*6C
1484662055.45,51772,5.81,73336.3,-13.33,-46.61,-47.03,0,*61
1484662056.67,51773,5.81,73336.8,-13.35,-46.35,-46.55,0,*65
1484662057.91,51774,5.81,73334.0,-13.35,-46.07,-46.35,0,*65
1484662059.16,51775,5.81,73336.8,-13.35,-46.49,-46.75,0,*6A
1484662060.41,51776,5.81,73336.8,-13.35,-46.49,-46.83,0,*60
1484662061.65,51777,5.81,73336.5,-13.35,-46.55,-46.61,0,*60
1484662062.89,51778,5.75,73334.3,-13.35,-46.07,-46.35,0,*69
1484662064.15,51779,5.81,73340.3,-13.35,-46.61,-47.03,0,*6C
1484662065.43,51780,5.81,73338.8,-13.33,-46.83,-47.23,0,*62
1484662066.64,51781,5.75,73336.8,-13.35,-46.75,-47.17,0,*6B
1484662067.9,51782,5.81,73336.5,-13.37,-46.69,-47.09,0,*68
1484662069.14,51783,5.81,73338.3,-13.37,-46.21,-46.55,0,*6D
1484662070.4,51784,5.81,73336.3,-13.37,-46.55,-46.69,0,*66
1484662071.67,51785,5.81,73338.5,-13.37,-46.35,-46.61,0,*69
1484662072.94,51786,5.81,73336.5,-13.35,-46.27,-46.49,0,*61
1484662074.22,51787,5.81,73332.8,-13.37,-46.15,-46.35,0,*68
1484662075.51,51788,5.81,73336.0,-13.37,-46.15,-46.41,0,*64
1484662076.8,51789,5.81,73334.5,-13.37,-46.69,-46.89,0,*6A
1484662078.06,51790,5.81,73332.0,-13.37,-46.21,-46.61,0,*68
1484662079.33,51791,5.75,73328.0,-13.37,-46.41,-46.83,0,*63
1484662080.58,51792,5.81,73330.8,-13.35,-46.97,-47.45,0,*62
1484662081.84,51793,5.81,73332.5,-13.37,-46.41,-46.55,0,*6A
1484662083.11,51794,5.81,73334.5,-13.37,-46.61,-46.83,0,*64
1484662084.35,51795,5.81,73332.5,-13.37,-46.21,-46.55,0,*6A
1484662085.62,51796,5.81,73336.8,-13.37,-46.35,-46.61,0,*6B
1484662086.86,51797,5.81,73332.3,-13.37,-46.83,-47.09,0,*68
1484662088.12,51798,5.81,73330.5,-13.37,-46.55,-46.69,0,*6B
1484662089.41,51799,5.81,73334.5,-13.37,-46.41,-46.69,0,*6F
1484662090.66,51800,5.81,73332.3,-13.41,-47.09,-47.31,0,*60
1484662091.95,51801,5.81,73334.0,-13.37,-47.23,-47.45,0,*6B
1484662093.21,51802,5.81,73334.0,-13.37,-47.03,-47.31,0,*69
1484662094.46,51803,5.81,73332.8,-13.41,-47.57,-47.99,0,*6A
1484662095.7,51804,5.75,73326.5,-13.41,-47.09,-47.31,0,*64
1484662096.97,51805,5.81,73324.8,-13.45,-47.17,-47.45,0,*6D
1484662098.24,51806,5.81,73330.8,-13.45,-47.17,-47.45,0,*6E